QPF
0.03 0.04 0.04 0.05 0.04 0.04 0.07 0.11 0.11 0.08 0.08 0.10 0.11 0.14 0.13 0.07 0.04 0.02 0.03 0.04 0.03 0.02 0.03 0.08 0.15 0.15 0.12 0.10 0.10 0.09 0.07 0.06 0.06 0.05 0.05 0.05 0.06 0.06 0.05 0.06 0.05 0.05 0.04 0.05 0.04 0.03 0.03 0.03 0.02
0.02 0.05 0.05 0.04 0.03 0.04 0.05 0.08 0.10 0.09 0.06 0.06 0.08 0.09 0.06 0.04 0.02 0.03 0.06 0.05 0.04 0.02 0.03 0.08 0.11 0.11 0.10 0.09 0.06 0.05 0.04 0.03 0.03 0.03 0.04 0.05 0.05 0.06 0.05 0.06 0.05 0.05 0.05 0.05 0.03 0.02 0.02 0.02 0.02
0.02 0.03 0.04 0.02 0.03 0.03 0.04 0.06 0.08 0.06 0.05 0.05 0.07 0.08 0.05 0.03 0.03 0.05 0.08 0.05 0.03 0.02 0.05 0.08 0.09 0.10 0.09 0.08 0.06 0.03 0.02 0.02 0.02 0.02 0.02 0.03 0.04 0.04 0.04 0.06 0.05 0.05 0.05 0.03 0.02 0.03 0.04 0.02 0.02
0.03 0.03 0.03 0.02 0.03 0.02 0.04 0.06 0.07 0.07 0.05 0.03 0.03 0.05 0.03 0.04 0.05 0.05 0.05 0.04 0.02 0.03 0.04 0.06 0.08 0.07 0.06 0.04 0.02 0.02 0.02 0.02 0.02 0.02 0.02 0.03 0.04 0.04 0.04 0.04 0.04 0.04 0.03 0.02 0.02 0.03 0.04 0.03 0.03
0.03 0.02 0.02 0.01 0.01 0.03 0.04 0.04 0.05 0.05 0.04 0.03 0.02 0.03 0.02 0.06 0.06 0.03 0.02 0.02 0.02 0.03 0.04 0.04 0.07 0.05 0.04 0.02 0.01 0.01 0.01 0.01 0.02 0.02 0.04 0.04 0.04 0.04 0.04 0.03 0.02 0.03 0.02 0.02 0.01 0.02 0.03 0.03 0.03
0.02 0.02 0.01 0.01 0.01 0.04 0.05 0.05 0.03 0.03 0.02 0.01 0.01 0.02 0.02 0.05 0.05 0.03 0.03 0.02 0.03 0.02 0.02 0.02 0.04 0.03 0.02 0.01 0.01 0.01 0.02 0.03 0.03 0.03 0.03 0.03 0.03 0.03 0.02 0.01 0.01 0.01 0.01 0.01 0.01 0.02 0.02 0.02 0.02
0.01 0.01 0.01 0.01 0.01 0.03 0.05 0.04 0.04 0.03 0.02 0.01 0.01 0.02 0.02 0.05 0.04 0.03 0.04 0.04 0.02 0.02 0.01 0.01 0.02 0.02 0.02 0.02 0.01 0.02 0.03 0.03 0.03 0.02 0.01 0.01 0.01 0.01 0.01 0.01 0.01 0.01 0.00 0.00 0.01 0.01 0.01 0.01 0.01
0.01 0.01 0.01 0.01 0.02 0.04 0.05 0.05 0.04 0.03 0.01 0.01 0.01 0.03 0.04 0.04 0.03 0.05 0.06 0.04 0.02 0.01 0.01 0.00 0.00 0.00 0.01 0.01 0.01 0.01 0.01 0.01 0.01 0.01 0.00 0.00 0.00 0.00 0.01 0.01 0.01 0.01 0.01 0.01 0.01 0.01 0.01 0.01 0.01
0.01 0.01 0.02 0.02 0.02 0.03 0.06 0.07 0.06 0.03 0.01 0.00 0.01 0.04 0.05 0.02 0.02 0.05 0.12 0.08 0.02 0.01 0.00 0.00 0.00 0.00 0.00 0.00 0.00 0.01 0.00 0.00 0.00 0.00 0.00 0.00 0.00 0.00 0.00 0.00 0.01 0.01 0.01 0.01 0.01 0.01 0.01 0.01 0.01
0.01 0.01 0.01 0.02 0.02 0.02 0.06 0.06 0.05 0.03 0.01 0.01 0.01 0.01 0.02 0.02 0.02 0.06 0.08 0.07 0.02 0.00 0.00 0.00 0.00 0.00 0.00 0.00 0.00 0.00 0.00 0.00 0.00 0.00 0.00 0.00 0.00 0.00 0.00 0.00 0.01 0.02 0.01 0.01 0.01 0.01 0.01 0.00 0.00
0.01 0.01 0.02 0.01 0.02 0.02 0.05 0.05 0.06 0.04 0.02 0.01 0.00 0.00 0.01 0.01 0.03 0.07 0.06 0.04 0.03 0.01 0.00 0.00 0.00 0.00 0.00 0.00 0.00 0.00 0.00 0.00 0.00 0.00 0.00 0.00 0.00 0.00 0.00 0.00 0.00 0.00 0.00 0.00 0.00 0.00 0.00 0.00 0.00
0.02 0.02 0.02 0.02 0.02 0.03 0.05 0.05 0.05 0.05 0.03 0.01 0.00 0.00 0.01 0.02 0.03 0.05 0.05 0.03 0.02 0.01 0.00 0.00 0.00 0.00 0.00 0.00 0.00 0.00 0.00 0.00 0.00 0.00 0.00 0.00 0.00 0.00 0.00 0.00 0.00 0.00 0.00 0.00 0.00 0.00 0.00 0.00 0.01
0.01 0.02 0.03 0.04 0.05 0.06 0.06 0.06 0.04 0.04 0.04 0.01 0.01 0.02 0.02 0.01 0.01 0.02 0.02 0.02 0.01 0.00 0.00 0.00 0.00 0.00 0.00 0.00 0.00 0.00 0.00 0.00 0.00 0.00 0.00 0.00 0.00 0.00 0.00 0.00 0.00 0.00 0.00 0.00 0.00 0.00 0.00 0.01 0.01
0.01 0.02 0.04 0.08 0.10 0.07 0.06 0.06 0.05 0.04 0.03 0.02 0.01 0.02 0.01 0.01 0.01 0.01 0.01 0.01 0.01 0.00 0.00 0.00 0.00 0.00 0.00 0.00 0.00 0.00 0.00 0.00 0.00 0.00 0.00 0.00 0.00 0.00 0.00 0.00 0.00 0.00 0.00 0.00 0.00 0.00 0.00 0.01 0.02
0.01 0.02 0.04 0.07 0.08 0.04 0.05 0.05 0.05 0.08 0.06 0.03 0.02 0.03 0.02 0.01 0.02 0.01 0.01 0.00 0.00 0.00 0.00 0.00 0.00 0.00 0.00 0.00 0.00 0.00 0.00 0.00 0.00 0.00 0.00 0.00 0.00 0.00 0.00 0.00 0.00 0.00 0.00 0.00 0.01 0.00 0.00 0.01 0.02
0.02 0.02 0.03 0.05 0.07 0.06 0.04 0.04 0.03 0.05 0.09 0.06 0.02 0.03 0.03 0.01 0.01 0.02 0.01 0.00 0.00 0.00 0.00 0.00 0.00 0.00 0.00 0.00 0.00 0.00 0.00 0.00 0.00 0.00 0.00 0.00 0.00 0.00 0.00 0.00 0.00 0.00 0.00 0.00 0.01 0.01 0.01 0.01 0.01
0.03 0.02 0.02 0.04 0.07 0.09 0.07 0.03 0.03 0.05 0.11 0.11 0.06 0.04 0.04 0.02 0.02 0.03 0.02 0.00 0.00 0.00 0.00 0.00 0.00 0.00 0.00 0.00 0.00 0.00 0.00 0.00 0.00 0.00 0.00 0.00 0.00 0.00 0.00 0.00 0.00 0.00 0.00 0.00 0.00 0.01 0.01 0.01 0.01
0.02 0.03 0.02 0.04 0.06 0.08 0.06 0.03 0.04 0.07 0.10 0.12 0.09 0.05 0.05 0.03 0.02 0.02 0.02 0.00 0.00 0.00 0.00 0.00 0.00 0.00 0.00 0.00 0.00 0.00 0.00 0.00 0.00 0.00 0.00 0.00 0.00 0.00 0.00 0.00 0.00 0.00 0.01 0.00 0.00 0.00 0.01 0.02 0.02
0.01 0.02 0.02 0.03 0.05 0.06 0.06 0.04 0.04 0.06 0.08 0.10 0.08 0.05 0.03 0.03 0.03 0.01 0.01 0.00 0.00 0.00 0.00 0.00 0.00 0.00 0.00 0.00 0.00 0.00 0.00 0.00 0.00 0.00 0.00 0.00 0.00 0.00 0.00 0.00 0.00 0.00 0.00 0.00 0.00 0.00 0.01 0.02 0.02
0.01 0.01 0.02 0.03 0.04 0.05 0.06 0.05 0.05 0.05 0.06 0.07 0.06 0.04 0.01 0.02 0.02 0.01 0.00 0.00 0.00 0.00 0.00 0.00 0.00 0.00 0.00 0.00 0.00 0.00 0.00 0.00 0.00 0.00 0.00 0.00 0.00 0.00 0.00 0.00 0.00 0.00 0.01 0.01 0.01 0.01 0.01 0.01 0.01
0.01 0.02 0.02 0.03 0.04 0.04 0.05 0.04 0.05 0.06 0.06 0.07 0.06 0.02 0.01 0.01 0.02 0.01 0.01 0.00 0.00 0.00 0.00 0.00 0.00 0.00 0.00 0.00 0.00 0.00 0.00 0.00 0.00 0.00 0.00 0.00 0.01 0.01 0.00 0.00 0.00 0.00 0.00 0.00 0.01 0.00 0.01 0.01 0.01
0.02 0.02 0.02 0.02 0.03 0.04 0.05 0.04 0.03 0.05 0.05 0.07 0.06 0.02 0.00 0.01 0.02 0.01 0.01 0.00 0.00 0.00 0.00 0.00 0.00 0.00 0.00 0.00 0.00 0.00 0.00 0.00 0.00 0.00 0.00 0.00 0.00 0.01 0.00 0.00 0.00 0.00 0.00 0.00 0.01 0.01 0.00 0.00 0.01
0.01 0.02 0.03 0.03 0.03 0.03 0.04 0.04 0.03 0.03 0.03 0.05 0.05 0.03 0.00 0.01 0.01 0.01 0.01 0.00 0.00 0.00 0.00 0.00 0.00 0.00 0.00 0.00 0.00 0.00 0.00 0.00 0.00 0.00 0.00 0.00 0.00 0.00 0.00 0.00 0.00 0.00 0.00 0.00 0.01 0.01 0.01 0.01 0.01
0.01 0.02 0.03 0.05 0.04 0.04 0.02 0.02 0.02 0.01 0.01 0.02 0.02 0.03 0.01 0.01 0.01 0.01 0.01 0.00 0.00 0.00 0.00 0.00 0.00 0.00 0.00 0.00 0.00 0.00 0.00 0.00 0.00 0.00 0.00 0.00 0.00 0.00 0.00 0.00 0.00 0.00 0.00 0.00 0.00 0.00 0.00 0.00 0.00
0.01 0.01 0.02 0.03 0.03 0.02 0.01 0.01 0.00 0.00 0.00 0.01 0.01 0.01 0.01 0.01 0.01 0.01 0.01 0.00 0.00 0.00 0.00 0.00 0.00 0.00 0.00 0.00 0.00 0.00 0.00 0.00 0.00 0.00 0.00 0.00 0.00 0.00 0.00 0.00 0.00 0.00 0.00 0.00 0.00 0.00 0.00 0.00 0.00
0.01 0.01 0.01 0.01 0.01 0.00 0.00 0.00 0.00 0.00 0.00 0.01 0.00 0.00 0.00 0.01 0.01 0.02 0.01 0.00 0.00 0.00 0.00 0.00 0.00 0.00 0.00 0.00 0.00 0.00 0.00 0.00 0.00 0.00 0.00 0.00 0.00 0.00 0.00 0.00 0.00 0.00 0.00 0.00 0.00 0.00 0.00 0.01 0.01
0.01 0.00 0.00 0.00 0.00 0.00 0.00 0.00 0.00 0.00 0.00 0.00 0.00 0.00 0.00 0.01 0.02 0.02 0.01 0.00 0.00 0.00 0.00 0.00 0.00 0.00 0.00 0.00 0.00 0.00 0.00 0.00 0.00 0.00 0.00 0.00 0.01 0.00 0.00 0.00 0.00 0.00 0.00 0.00 0.00 0.00 0.00 0.01 0.01
0.01 0.01 0.01 0.01 0.01 0.00 0.00 0.00 0.00 0.01 0.01 0.00 0.01 0.00 0.01 0.01 0.02 0.02 0.01 0.01 0.00 0.00 0.00 0.00 0.00 0.00 0.00 0.00 0.00 0.00 0.00 0.00 0.00 0.00 0.00 0.00 0.00 0.00 0.00 0.00 0.00 0.00 0.00 0.00 0.00 0.01 0.01 0.02 0.02
0.01 0.01 0.01 0.01 0.01 0.01 0.00 0.00 0.00 0.00 0.00 0.00 0.01 0.01 0.00 0.01 0.02 0.02 0.01 0.01 0.00 0.00 0.00 0.00 0.00 0.00 0.00 0.00 0.00 0.00 0.00 0.00 0.00 0.00 0.00 0.00 0.00 0.00 0.00 0.00 0.00 0.00 0.00 0.00 0.00 0.00 0.01 0.02 0.02
0.00 0.01 0.01 0.01 0.01 0.00 0.00 0.00 0.00 0.00 0.00 0.01 0.01 0.01 0.01 0.01 0.02 0.02 0.02 0.01 0.00 0.00 0.00 0.00 0.00 0.00 0.00 0.00 0.00 0.00 0.00 0.00 0.00 0.00 0.00 0.00 0.00 0.00 0.00 0.00 0.00 0.00 0.00 0.00 0.01 0.01 0.01 0.01 0.02
MSLP
1009.38 1010.29 1011.43 1012.64 1013.75 1014.63 1015.20 1015.46 1015.46 1015.30 1015.09 1014.93 1014.86 1014.89 1014.99 1015.08 1015.08 1014.95 1014.66 1014.24 1013.75 1013.26 1012.84 1012.56 1012.44 1012.46 1012.59 1012.76 1012.93 1013.07 1013.17 1013.24 1013.32 1013.43 1013.60 1013.83 1014.09 1014.37 1014.63 1014.84 1014.98 1015.07 1015.11 1015.13 1015.15 1015.19 1015.25 1015.32 1015.40
1009.89 1010.98 1012.24 1013.49 1014.55 1015.31 1015.71 1015.76 1015.55 1015.18 1014.81 1014.52 1014.38 1014.38 1014.48 1014.60 1014.65 1014.58 1014.36 1014.01 1013.59 1013.17 1012.83 1012.62 1012.56 1012.63 1012.79 1013.00 1013.20 1013.37 1013.49 1013.59 1013.68 1013.80 1013.96 1014.16 1014.40 1014.63 1014.84 1015.01 1015.12 1015.18 1015.21 1015.22 1015.25 1015.30 1015.37 1015.45 1015.53
1010.56 1011.78 1013.09 1014.30 1015.27 1015.87 1016.08 1015.94 1015.54 1015.04 1014.56 1014.21 1014.04 1014.05 1014.16 1014.31 1014.40 1014.37 1014.20 1013.90 1013.54 1013.19 1012.91 1012.76 1012.75 1012.87 1013.07 1013.31 1013.54 1013.73 1013.87 1013.99 1014.09 1014.20 1014.34 1014.51 1014.69 1014.87 1015.03 1015.14 1015.22 1015.26 1015.28 1015.32 1015.36 1015.44 1015.53 1015.63 1015.73
1011.37 1012.63 1013.91 1015.03 1015.84 1016.27 1016.30 1016.01 1015.50 1014.92 1014.41 1014.06 1013.92 1013.95 1014.10 1014.28 1014.40 1014.39 1014.25 1013.99 1013.68 1013.37 1013.15 1013.04 1013.08 1013.22 1013.45 1013.70 1013.94 1014.14 1014.29 1014.40 1014.50 1014.60 1014.72 1014.85 1014.98 1015.11 1015.21 1015.29 1015.33 1015.36 1015.40 1015.45 1015.52 1015.63 1015.75 1015.88 1016.00
1012.23 1013.47 1014.65 1015.62 1016.25 1016.50 1016.39 1015.99 1015.43 1014.85 1014.38 1014.10 1014.02 1014.12 1014.31 1014.51 1014.65 1014.65 1014.53 1014.29 1014.01 1013.75 1013.56 1013.49 1013.55 1013.71 1013.93 1014.17 1014.39 1014.57 1014.71 1014.81 1014.90 1014.98 1015.07 1015.17 1015.27 1015.36 1015.42 1015.47 1015.50 1015.52 1015.57 1015.64 1015.74 1015.87 1016.02 1016.17 1016.30
1013.06 1014.20 1015.23 1016.01 1016.46 1016.56 1016.34 1015.89 1015.35 1014.85 1014.48 1014.30 1014.32 1014.49 1014.73 1014.95 1015.09 1015.10 1014.98 1014.76 1014.50 1014.27 1014.12 1014.08 1014.14 1014.29 1014.49 1014.69 1014.87 1015.01 1015.11 1015.18 1015.24 1015.31 1015.39 1015.47 1015.55 1015.62 1015.66 1015.69 1015.71 1015.74 1015.79 1015.88 1015.99 1016.14 1016.30 1016.45 1016.57
1013.77 1014.77 1015.61 1016.19 1016.47 1016.44 1016.17 1015.74 1015.27 1014.88 1014.65 1014.61 1014.73 1014.97 1015.25 1015.48 1015.61 1015.61 1015.49 1015.29 1015.07 1014.88 1014.76 1014.74 1014.80 1014.93 1015.08 1015.22 1015.34 1015.41 1015.46 1015.49 1015.53 1015.58 1015.65 1015.74 1015.81 1015.88 1015.92 1015.94 1015.96 1015.98 1016.03 1016.11 1016.23 1016.36 1016.51 1016.64 1016.75
1014.30 1015.13 1015.77 1016.17 1016.31 1016.20 1015.91 1015.54 1015.19 1014.95 1014.87 1014.95 1015.17 1015.46 1015.76 1015.98 1016.09 1016.07 1015.96 1015.78 1015.59 1015.45 1015.38 1015.38 1015.45 1015.55 1015.65 1015.73 1015.77 1015.77 1015.76 1015.75 1015.76 1015.81 1015.88 1015.97 1016.05 1016.12 1016.17 1016.19 1016.20 1016.21 1016.24 1016.30 1016.39 1016.50 1016.62 1016.72 1016.81
1014.64 1015.29 1015.75 1016.00 1016.03 1015.88 1015.63 1015.35 1015.14 1015.04 1015.10 1015.29 1015.57 1015.89 1016.16 1016.36 1016.43 1016.40 1016.28 1016.13 1016.00 1015.91 1015.89 1015.93 1016.01 1016.10 1016.16 1016.18 1016.15 1016.09 1016.02 1015.97 1015.96 1016.00 1016.07 1016.17 1016.27 1016.34 1016.39 1016.40 1016.39 1016.38 1016.38 1016.40 1016.46 1016.53 1016.61 1016.68 1016.74
1014.81 1015.30 1015.61 1015.74 1015.71 1015.57 1015.38 1015.21 1015.13 1015.17 1015.33 1015.59 1015.90 1016.20 1016.44 1016.58 1016.61 1016.54 1016.43 1016.31 1016.23 1016.20 1016.25 1016.34 1016.45 1016.53 1016.58 1016.56 1016.48 1016.37 1016.26 1016.18 1016.15 1016.18 1016.26 1016.36 1016.46 1016.53 1016.57 1016.56 1016.53 1016.48 1016.44 1016.43 1016.43 1016.47 1016.51 1016.56 1016.60
1014.89 1015.24 1015.45 1015.51 1015.45 1015.34 1015.23 1015.17 1015.20 1015.34 1015.58 1015.87 1016.16 1016.42 1016.59 1016.65 1016.63 1016.53 1016.42 1016.33 1016.29 1016.33 1016.44 1016.59 1016.74 1016.85 1016.90 1016.87 1016.77 1016.64 1016.51 1016.41 1016.37 1016.38 1016.45 1016.54 1016.63 1016.69 1016.71 1016.67 1016.61 1016.52 1016.45 1016.39 1016.37 1016.37 1016.40 1016.44 1016.48
1014.96 1015.22 1015.35 1015.37 1015.33 1015.27 1015.24 1015.27 1015.39 1015.60 1015.86 1016.14 1016.39 1016.57 1016.66 1016.65 1016.56 1016.43 1016.31 1016.24 1016.25 1016.35 1016.52 1016.72 1016.92 1017.07 1017.14 1017.13 1017.04 1016.92 1016.78 1016.68 1016.62 1016.62 1016.67 1016.74 1016.80 1016.83 1016.82 1016.75 1016.65 1016.54 1016.44 1016.36 1016.32 1016.32 1016.35 1016.40 1016.46
1015.11 1015.30 1015.39 1015.41 1015.39 1015.39 1015.42 1015.53 1015.70 1015.93 1016.19 1016.42 1016.61 1016.71 1016.72 1016.63 1016.49 1016.33 1016.20 1016.14 1016.18 1016.31 1016.52 1016.77 1017.02 1017.21 1017.33 1017.36 1017.31 1017.21 1017.09 1016.99 1016.93 1016.91 1016.93 1016.96 1016.98 1016.97 1016.92 1016.82 1016.70 1016.57 1016.45 1016.38 1016.35 1016.37 1016.43 1016.51 1016.60
1015.41 1015.56 1015.62 1015.64 1015.66 1015.70 1015.78 1015.92 1016.11 1016.33 1016.55 1016.73 1016.85 1016.88 1016.81 1016.67 1016.49 1016.31 1016.17 1016.11 1016.16 1016.30 1016.53 1016.81 1017.09 1017.33 1017.50 1017.58 1017.58 1017.53 1017.44 1017.36 1017.28 1017.24 1017.22 1017.20 1017.17 1017.12 1017.03 1016.91 1016.77 1016.64 1016.54 1016.49 1016.49 1016.55 1016.66 1016.80 1016.94
1015.86 1015.97 1016.03 1016.06 1016.09 1016.16 1016.26 1016.41 1016.58 1016.76 1016.93 1017.05 1017.10 1017.07 1016.96 1016.80 1016.60 1016.41 1016.27 1016.20 1016.24 1016.38 1016.61 1016.89 1017.18 1017.45 1017.67 1017.81 1017.87 1017.87 1017.82 1017.75 1017.67 1017.59 1017.53 1017.46 1017.38 1017.28 1017.16 1017.03 1016.89 1016.78 1016.71 1016.70 1016.75 1016.86 1017.03 1017.22 1017.42
1016.42 1016.51 1016.55 1016.59 1016.63 1016.70 1016.80 1016.92 1017.05 1017.17 1017.27 1017.33 1017.33 1017.27 1017.15 1016.99 1016.80 1016.63 1016.49 1016.43 1016.45 1016.57 1016.77 1017.03 1017.32 1017.61 1017.86 1018.05 1018.17 1018.22 1018.21 1018.15 1018.06 1017.96 1017.84 1017.72 1017.59 1017.45 1017.31 1017.18 1017.06 1016.98 1016.95 1016.98 1017.08 1017.25 1017.47 1017.72 1017.98
1017.01 1017.08 1017.12 1017.15 1017.20 1017.26 1017.33 1017.40 1017.46 1017.51 1017.53 1017.53 1017.49 1017.42 1017.32 1017.19 1017.06 1016.92 1016.82 1016.76 1016.77 1016.85 1017.01 1017.24 1017.51 1017.80 1018.07 1018.30 1018.47 1018.57 1018.59 1018.54 1018.44 1018.31 1018.15 1017.98 1017.81 1017.64 1017.49 1017.36 1017.27 1017.22 1017.23 1017.30 1017.45 1017.66 1017.93 1018.22 1018.51
1017.54 1017.59 1017.63 1017.68 1017.72 1017.77 1017.80 1017.81 1017.79 1017.75 1017.68 1017.61 1017.55 1017.48 1017.42 1017.35 1017.29 1017.23 1017.17 1017.14 1017.14 1017.20 1017.32 1017.50 1017.74 1018.02 1018.30 1018.56 1018.77 1018.90 1018.95 1018.91 1018.80 1018.64 1018.44 1018.23 1018.02 1017.84 1017.68 1017.57 1017.50 1017.48 1017.52 1017.63 1017.80 1018.03 1018.31 1018.63 1018.95
1017.92 1017.98 1018.04 1018.11 1018.17 1018.21 1018.20 1018.14 1018.02 1017.87 1017.71 1017.56 1017.46 1017.40 1017.39 1017.40 1017.43 1017.46 1017.48 1017.50 1017.52 1017.56 1017.65 1017.80 1018.00 1018.26 1018.54 1018.81 1019.05 1019.21 1019.28 1019.25 1019.13 1018.95 1018.72 1018.48 1018.25 1018.05 1017.90 1017.80 1017.75 1017.75 1017.80 1017.92 1018.09 1018.31 1018.59 1018.91 1019.25
1018.10 1018.19 1018.31 1018.44 1018.54 1018.58 1018.53 1018.39 1018.17 1017.89 1017.61 1017.38 1017.23 1017.16 1017.19 1017.29 1017.43 1017.57 1017.68 1017.77 1017.83 1017.89 1017.96 1018.08 1018.26 1018.50 1018.77 1019.06 1019.31 1019.49 1019.58 1019.56 1019.44 1019.25 1019.00 1018.74 1018.50 1018.29 1018.14 1018.04 1018.01 1018.02 1018.07 1018.17 1018.32 1018.52 1018.76 1019.06 1019.39
1018.08 1018.25 1018.46 1018.67 1018.84 1018.90 1018.83 1018.60 1018.26 1017.84 1017.43 1017.08 1016.85 1016.77 1016.82 1017.00 1017.24 1017.50 1017.73 1017.91 1018.03 1018.12 1018.21 1018.32 1018.48 1018.71 1018.98 1019.27 1019.53 1019.74 1019.85 1019.85 1019.74 1019.54 1019.29 1019.02 1018.76 1018.56 1018.41 1018.32 1018.28 1018.29 1018.33 1018.40 1018.51 1018.65 1018.85 1019.11 1019.41
1017.92 1018.20 1018.54 1018.87 1019.12 1019.22 1019.12 1018.81 1018.33 1017.76 1017.18 1016.69 1016.36 1016.22 1016.29 1016.53 1016.87 1017.24 1017.60 1017.89 1018.10 1018.25 1018.37 1018.49 1018.65 1018.87 1019.14 1019.43 1019.71 1019.94 1020.08 1020.10 1020.01 1019.82 1019.58 1019.31 1019.06 1018.86 1018.71 1018.63 1018.59 1018.58 1018.60 1018.63 1018.69 1018.77 1018.91 1019.11 1019.37
1017.71 1018.12 1018.62 1019.09 1019.43 1019.56 1019.43 1019.03 1018.41 1017.65 1016.89 1016.24 1015.78 1015.58 1015.63 1015.91 1016.33 1016.82 1017.30 1017.71 1018.02 1018.25 1018.41 1018.56 1018.73 1018.96 1019.23 1019.54 1019.84 1020.09 1020.26 1020.31 1020.25 1020.10 1019.87 1019.62 1019.39 1019.19 1019.05 1018.96 1018.92 1018.91 1018.90 1018.90 1018.90 1018.93 1019.00 1019.14 1019.36
1017.54 1018.11 1018.76 1019.35 1019.78 1019.93 1019.76 1019.25 1018.47 1017.53 1016.58 1015.75 1015.16 1014.87 1014.89 1015.19 1015.68 1016.28 1016.87 1017.40 1017.81 1018.12 1018.35 1018.54 1018.73 1018.97 1019.25 1019.57 1019.89 1020.18 1020.38 1020.48 1020.46 1020.34 1020.15 1019.93 1019.71 1019.53 1019.40 1019.32 1019.28 1019.26 1019.24 1019.21 1019.18 1019.16 1019.18 1019.26 1019.42
1017.50 1018.21 1018.99 1019.68 1020.16 1020.31 1020.07 1019.44 1018.50 1017.38 1016.24 1015.24 1014.52 1014.14 1014.12 1014.43 1014.98 1015.66 1016.36 1016.99 1017.51 1017.90 1018.19 1018.42 1018.64 1018.89 1019.19 1019.53 1019.87 1020.19 1020.44 1020.59 1020.62 1020.55 1020.40 1020.22 1020.03 1019.87 1019.75 1019.69 1019.65 1019.64 1019.62 1019.59 1019.54 1019.49 1019.47 1019.50 1019.60
1017.61 1018.43 1019.30 1020.05 1020.53 1020.64 1020.31 1019.55 1018.46 1017.17 1015.87 1014.74 1013.89 1013.44 1013.39 1013.70 1014.29 1015.03 1015.81 1016.54 1017.14 1017.61 1017.96 1018.23 1018.48 1018.75 1019.06 1019.42 1019.79 1020.14 1020.43 1020.63 1020.72 1020.70 1020.61 1020.46 1020.31 1020.18 1020.09 1020.04 1020.03 1020.03 1020.03 1020.01 1019.97 1019.92 1019.88 1019.87 1019.93
1017.86 1018.74 1019.63 1020.37 1020.82 1020.85 1020.41 1019.53 1018.31 1016.90 1015.48 1014.24 1013.33 1012.82 1012.74 1013.06 1013.67 1014.46 1015.30 1016.09 1016.76 1017.29 1017.69 1018.00 1018.28 1018.57 1018.89 1019.27 1019.66 1020.04 1020.38 1020.62 1020.76 1020.80 1020.76 1020.66 1020.55 1020.45 1020.39 1020.38 1020.39 1020.43 1020.46 1020.47 1020.46 1020.43 1020.39 1020.36 1020.38
1018.17 1019.04 1019.90 1020.58 1020.94 1020.86 1020.32 1019.34 1018.03 1016.54 1015.07 1013.79 1012.85 1012.32 1012.24 1012.56 1013.19 1014.00 1014.87 1015.70 1016.41 1016.97 1017.41 1017.76 1018.06 1018.37 1018.71 1019.10 1019.51 1019.92 1020.29 1020.57 1020.76 1020.85 1020.86 1020.81 1020.74 1020.68 1020.66 1020.68 1020.73 1020.81 1020.88 1020.94 1020.97 1020.97 1020.94 1020.92 1020.91
1018.43 1019.25 1020.01 1020.57 1020.80 1020.62 1019.98 1018.94 1017.60 1016.11 1014.65 1013.40 1012.49 1011.99 1011.92 1012.25 1012.87 1013.69 1014.56 1015.39 1016.11 1016.70 1017.16 1017.53 1017.86 1018.18 1018.54 1018.94 1019.37 1019.80 1020.19 1020.51 1020.73 1020.87 1020.92 1020.92 1020.89 1020.87 1020.89 1020.94 1021.03 1021.15 1021.27 1021.38 1021.45 1021.49 1021.50 1021.49 1021.47
1018.57 1019.27 1019.89 1020.30 1020.39 1020.09 1019.39 1018.34 1017.03 1015.62 1014.25 1013.09 1012.26 1011.82 1011.79 1012.12 1012.73 1013.52 1014.36 1015.17 1015.88 1016.47 1016.95 1017.34 1017.69 1018.03 1018.41 1018.82 1019.26 1019.70 1020.10 1020.44 1020.69 1020.86 1020.95 1020.99 1021.01 1021.03 1021.08 1021.17 1021.30 1021.45 1021.61 1021.76 1021.88 1021.96 1021.99 1022.00 1021.99
Thickness
5795 5795 5793 5781 5759 5741 5735 5742 5749 5749 5750 5756 5760 5757 5752 5747 5743 5740 5756 5765 5766 5766 5766 5766 5766 5764 5763 5762 5760 5759 5757 5755 5753 5751 5750 5748 5746 5745 5744 5743 5742 5741 5741 5740 5740 5740 5741 5741 5742
5794 5792 5783 5766 5743 5727 5732 5743 5745 5749 5755 5759 5759 5756 5751 5748 5752 5753 5758 5762 5764 5764 5764 5764 5763 5762 5761 5759 5758 5756 5755 5753 5751 5749 5747 5745 5744 5742 5741 5739 5738 5738 5737 5736 5737 5737 5738 5738 5739
5793 5789 5769 5752 5738 5729 5734 5744 5746 5752 5758 5758 5753 5752 5749 5746 5752 5755 5759 5762 5762 5762 5762 5762 5761 5759 5758 5756 5755 5753 5752 5750 5748 5746 5744 5743 5741 5739 5738 5737 5735 5734 5734 5733 5733 5734 5734 5735 5736
5786 5774 5761 5743 5735 5740 5744 5746 5751 5751 5754 5755 5751 5745 5748 5753 5755 5757 5759 5760 5759 5759 5759 5759 5758 5757 5756 5754 5752 5751 5749 5747 5746 5744 5742 5740 5738 5736 5735 5734 5733 5732 5731 5730 5730 5731 5731 5732 5732
5778 5761 5744 5733 5736 5743 5747 5751 5752 5748 5747 5748 5747 5739 5740 5750 5757 5757 5757 5757 5756 5756 5756 5756 5755 5754 5753 5751 5750 5748 5746 5745 5743 5741 5740 5738 5736 5734 5732 5731 5730 5729 5728 5727 5728 5728 5728 5729 5729
5761 5750 5730 5724 5733 5742 5747 5751 5749 5745 5745 5747 5744 5737 5737 5748 5751 5752 5754 5754 5754 5754 5753 5753 5752 5751 5750 5749 5747 5745 5744 5742 5741 5739 5737 5735 5733 5731 5730 5728 5727 5726 5725 5725 5725 5725 5726 5726 5726
5752 5740 5729 5728 5730 5736 5744 5750 5746 5742 5741 5744 5745 5734 5735 5743 5748 5750 5751 5751 5751 5751 5750 5749 5748 5748 5747 5745 5744 5743 5741 5740 5739 5737 5735 5733 5731 5729 5727 5726 5725 5724 5723 5723 5723 5723 5723 5724 5724
5756 5740 5729 5727 5728 5733 5745 5749 5748 5744 5741 5749 5747 5734 5731 5741 5747 5747 5747 5747 5748 5748 5747 5746 5745 5744 5744 5743 5742 5740 5739 5738 5736 5735 5733 5731 5729 5727 5725 5723 5722 5722 5721 5721 5721 5720 5721 5721 5722
5758 5731 5721 5727 5729 5734 5745 5744 5745 5750 5746 5746 5746 5743 5743 5745 5744 5742 5741 5741 5742 5744 5744 5743 5742 5742 5741 5740 5739 5738 5736 5735 5734 5733 5731 5729 5727 5724 5722 5721 5720 5719 5719 5718 5718 5718 5718 5718 5719
5744 5724 5729 5738 5740 5739 5742 5742 5742 5740 5736 5736 5738 5741 5743 5742 5739 5736 5735 5735 5737 5739 5740 5741 5740 5739 5739 5738 5736 5735 5734 5733 5732 5731 5729 5727 5724 5722 5720 5718 5717 5717 5716 5716 5715 5715 5715 5715 5716
5742 5731 5736 5741 5745 5744 5740 5740 5742 5735 5729 5734 5734 5735 5737 5736 5735 5734 5734 5735 5736 5738 5739 5739 5738 5738 5737 5736 5735 5734 5732 5732 5731 5729 5727 5725 5722 5720 5718 5716 5715 5714 5713 5712 5712 5712 5711 5712 5712
5736 5736 5740 5740 5745 5743 5739 5738 5735 5735 5735 5741 5741 5739 5736 5733 5732 5732 5733 5734 5736 5736 5737 5738 5738 5736 5735 5734 5733 5732 5731 5730 5728 5727 5725 5723 5720 5718 5715 5713 5712 5711 5710 5709 5708 5708 5708 5709 5709
5732 5733 5738 5739 5741 5740 5738 5733 5732 5732 5738 5740 5738 5735 5732 5731 5732 5733 5735 5735 5736 5735 5736 5737 5737 5736 5734 5733 5732 5731 5730 5728 5727 5725 5723 5721 5719 5716 5713 5711 5710 5708 5707 5706 5706 5705 5705 5706 5706
5730 5731 5731 5733 5735 5735 5730 5728 5729 5729 5734 5734 5732 5730 5730 5730 5731 5731 5733 5733 5734 5735 5736 5736 5735 5735 5733 5732 5731 5729 5728 5727 5725 5724 5722 5720 5717 5714 5712 5710 5708 5707 5705 5704 5703 5703 5703 5702 5703
5731 5723 5722 5725 5728 5728 5728 5717 5721 5728 5730 5727 5727 5726 5728 5729 5730 5731 5733 5734 5734 5734 5735 5734 5734 5733 5732 5731 5730 5728 5727 5726 5724 5722 5720 5718 5716 5714 5711 5709 5707 5705 5704 5703 5702 5701 5701 5700 5699
5720 5710 5703 5715 5722 5724 5717 5703 5719 5726 5725 5721 5722 5723 5724 5727 5729 5731 5733 5734 5734 5734 5734 5734 5735 5732 5731 5729 5728 5726 5725 5724 5722 5720 5719 5717 5715 5713 5711 5708 5706 5705 5704 5702 5701 5699 5698 5696 5695
5699 5692 5695 5704 5716 5717 5711 5704 5717 5722 5721 5717 5718 5719 5721 5723 5727 5730 5732 5733 5733 5733 5733 5732 5732 5730 5729 5727 5726 5725 5723 5722 5720 5719 5718 5716 5715 5713 5711 5708 5706 5704 5703 5701 5700 5696 5696 5693 5693
5687 5688 5691 5696 5707 5710 5705 5705 5713 5718 5718 5715 5715 5716 5718 5720 5724 5728 5730 5731 5732 5732 5731 5730 5729 5728 5727 5725 5724 5722 5721 5720 5719 5718 5717 5715 5714 5712 5710 5708 5706 5704 5702 5699 5697 5695 5694 5692 5692
5695 5690 5688 5694 5705 5704 5701 5702 5709 5714 5714 5712 5711 5713 5716 5720 5724 5726 5728 5729 5729 5728 5728 5728 5727 5725 5725 5723 5721 5719 5717 5717 5716 5716 5715 5714 5713 5711 5710 5707 5705 5704 5701 5699 5697 5695 5693 5690 5691
5693 5686 5685 5691 5701 5701 5696 5699 5707 5711 5713 5714 5713 5712 5715 5717 5720 5722 5724 5726 5727 5726 5726 5725 5725 5724 5724 5723 5721 5719 5717 5716 5715 5714 5714 5713 5712 5711 5709 5707 5705 5703 5701 5699 5698 5696 5692 5689 5689
5688 5685 5685 5685 5693 5697 5694 5692 5700 5709 5713 5715 5716 5716 5717 5718 5719 5720 5722 5723 5724 5724 5725 5726 5724 5724 5723 5723 5721 5719 5717 5715 5713 5712 5712 5711 5711 5710 5708 5707 5705 5703 5701 5699 5698 5697 5695 5690 5689
5680 5692 5691 5687 5680 5674 5683 5671 5691 5701 5705 5710 5713 5714 5716 5720 5720 5721 5722 5722 5723 5725 5725 5725 5724 5723 5723 5722 5721 5718 5715 5711 5711 5710 5710 5710 5710 5709 5708 5706 5705 5703 5701 5699 5698 5697 5696 5694 5690
5686 5692 5688 5683 5675 5670 5675 5671 5682 5696 5697 5706 5713 5717 5719 5721 5722 5722 5723 5724 5725 5726 5725 5724 5723 5723 5722 5722 5721 5718 5715 5713 5711 5710 5710 5709 5709 5708 5707 5706 5705 5703 5701 5700 5699 5698 5697 5695 5692
5690 5683 5676 5669 5664 5656 5669 5666 5675 5690 5702 5710 5716 5720 5721 5722 5723 5723 5725 5725 5725 5725 5724 5723 5722 5721 5722 5721 5720 5718 5716 5713 5711 5709 5708 5707 5707 5707 5706 5706 5704 5703 5701 5700 5699 5698 5697 5696 5694
5682 5664 5649 5646 5643 5650 5668 5667 5680 5706 5716 5720 5722 5723 5724 5724 5723 5722 5722 5722 5723 5723 5723 5723 5721 5721 5721 5720 5719 5718 5717 5714 5712 5710 5708 5707 5706 5705 5705 5705 5704 5703 5701 5700 5699 5698 5697 5696 5694
5674 5666 5646 5638 5638 5648 5664 5664 5690 5714 5721 5726 5728 5728 5725 5724 5724 5724 5724 5724 5725 5724 5723 5722 5721 5721 5720 5720 5719 5719 5717 5715 5713 5712 5710 5708 5706 5705 5705 5704 5703 5702 5701 5700 5699 5698 5696 5695 5694
5668 5663 5665 5651 5649 5645 5655 5671 5693 5713 5717 5721 5725 5725 5725 5725 5725 5725 5726 5726 5726 5726 5725 5724 5722 5721 5720 5720 5719 5718 5717 5716 5714 5712 5711 5709 5707 5706 5705 5704 5703 5701 5701 5699 5698 5697 5695 5694 5692
5678 5668 5654 5649 5640 5638 5653 5665 5678 5699 5708 5716 5720 5722 5725 5726 5726 5726 5727 5728 5728 5728 5726 5725 5723 5722 5721 5720 5719 5718 5717 5716 5714 5713 5711 5709 5707 5706 5705 5703 5702 5701 5699 5698 5697 5695 5694 5693 5691
5668 5664 5657 5648 5647 5639 5641 5662 5697 5703 5710 5714 5719 5724 5726 5726 5727 5728 5728 5728 5728 5727 5726 5724 5722 5721 5720 5719 5718 5717 5716 5715 5714 5712 5711 5709 5708 5706 5704 5703 5701 5700 5698 5697 5695 5694 5692 5691 5689
5676 5669 5659 5648 5646 5644 5643 5663 5708 5709 5713 5717 5720 5724 5726 5728 5728 5729 5729 5727 5726 5725 5725 5723 5722 5721 5720 5719 5718 5716 5715 5714 5713 5711 5710 5709 5707 5706 5704 5702 5700 5699 5697 5695 5694 5692 5690 5689 5687